Location: Hilton Head Island
(32.2163°N, 80.7526°W)
Time: 21:25:18
(UTC-04:00)

Vanguard 1 - Pass Details

Date: 22 February 2026
Orbit: 653 x 3818 km, 34.2° (Epoch: 9 March)

Event Time Altitude Azimuth Distance (km) Brightness Sun altitude
Rises 15:54:46 0° 266° (W) 4,297 14.3 26.6°
Reaches altitude 10° 15:57:05 10° 267° (W) 3,603 14.1 26.2°
Maximum altitude 16:06:55 83° 356° (N) 2,230 12.2 24.4°
Drops below altitude 10° 16:25:43 10° 85° (E) 6,374 13.7 21.0°
Sets 16:31:27 0° 87° (E) 7,693 14.1 19.9°
